Harrow, Ontario

2:56 AM EST on January 16, 2018 (GMT -0500)
Harrow

Weather History for CXHA - August, 2014

Change the Weather History Date:

Saturday, August 30, 2014

  Actual Average (CYQG) Record (CYQG)
Temperature  
Mean Temperature 77 °F -  
Max Temperature 84 °F 76 °F 93 °F (2010)
Min Temperature 70 °F 60 °F 55 °F (1999)
Cooling Degree Days 12    
Growing Degree Days 27 (Base 50)    
Moisture  
Dew Point 66 °F    
Average Humidity 69    
Maximum Humidity 80    
Minimum Humidity 51    
Precipitation  
Precipitation 0.00 in - - ()
Sea Level Pressure  
Sea Level Pressure 29.93 in    
Wind  
Wind Speed 8 mph ()    
Max Wind Speed 13 mph    
Max Gust Speed 22 mph    
Averages and records for this station are not official NWS values.
T = Trace of Precipitation, MM = Missing Value Source: Averaged Metar Reports

Daily Weather History Graph

Daily Weather History Graph

Search for Another Location

Airport or City:

Trip Planner

Search our weather history database for the weather conditions in past years. The results will help you decide how hot, cold, wet, or windy it might be!

Date:

Astronomy

Aug. 30, 2014 Rise Set
Actual Time 6:55 AM EDT 8:08 PM EDT
Civil Twilight 6:26 AM EDT 8:37 PM EDT
Nautical Twilight 5:51 AM EDT 9:11 PM EDT
Astronomical Twilight 5:15 AM EDT 9:48 PM EDT
Moon 11:46 AM EDT (8/30) 10:36 PM EDT (8/30)
Length of Visible Light 14h 11m
Length of Day
13h 13m
Waxing Crescent, 23% of the Moon is Illuminated
Aug 30
Waxing Crescent
Sep 2
First Quarter
Sep 8
Full
Sep 15
Last Quarter
Sep 24
New

Hourly Weather History & Observations

Time (EDT) Temp. Heat Index Dew Point Humidity Pressure Visibility Wind Dir Wind Speed Gust Speed Precip Events Conditions
12:00 AM 71.8 °F - 63.5 °F 75% 30.01 in - SSE 5.8 mph - N/A   Unknown
1:00 AM 70.9 °F - 64.4 °F 80% 30.01 in - SSE 5.8 mph - N/A   Unknown
2:00 AM 71 °F - 64 °F 71% 29.99 in - South 5.8 mph - -  
3:00 AM 70.7 °F - 63.0 °F 76% 29.97 in - South 6.9 mph - N/A   Unknown
4:00 AM 71.8 °F - 63.7 °F 76% 29.96 in - South 5.8 mph - N/A   Unknown
5:00 AM 73.0 °F - 64.0 °F 73% 29.95 in - SSW 8.1 mph - N/A   Unknown
6:00 AM 73.4 °F - 64.4 °F 73% 29.94 in - SSW 10.4 mph - N/A   Unknown
7:00 AM 72.9 °F - 64.6 °F 75% 29.95 in - SSW 10.4 mph - N/A   Unknown
8:00 AM 74 °F - 65 °F 68% 29.96 in - SSW 9.2 mph - -  
8:00 AM 73.9 °F - 65.5 °F 75% 29.96 in - SSW 9.2 mph 17.3 mph N/A   Unknown
9:00 AM 75.4 °F - 64.9 °F 70% 29.95 in - SSW 10.4 mph - N/A   Unknown
10:00 AM 76.8 °F - 63.5 °F 63% 29.94 in - SSW 10.4 mph 18.4 mph N/A   Unknown
11:00 AM 78.4 °F - 66.7 °F 67% 29.94 in - SSW 10.4 mph - N/A   Unknown
12:00 PM 79.9 °F - 67.6 °F 66% 29.93 in - SSW 12.7 mph - N/A   Unknown
1:00 PM 81.9 °F 84.6 °F 67.6 °F 62% 29.91 in - SSW 11.5 mph 18.4 mph N/A   Unknown
2:00 PM 83 °F - 68 °F 51% 29.91 in - SSW 12.7 mph - -  
2:00 PM 82.6 °F 85.3 °F 67.6 °F 60% 29.91 in - SSW 12.7 mph 21.9 mph N/A   Unknown
3:00 PM 84.6 °F 88.5 °F 69.3 °F 60% 29.90 in - SW 12.7 mph 19.6 mph N/A   Unknown
4:00 PM 79.2 °F - 69.6 °F 72% 29.89 in - SW 8.1 mph - N/A   Unknown
5:00 PM 80.4 °F 83.0 °F 67.6 °F 65% 29.87 in - SSW 11.5 mph 17.3 mph N/A   Unknown
6:00 PM 80.2 °F 83.2 °F 69.4 °F 69% 29.86 in - SSW 8.1 mph - N/A   Unknown
7:00 PM 78.6 °F - 67.8 °F 69% 29.86 in - SSW 11.5 mph 18.4 mph N/A   Unknown
8:00 PM 78 °F - 67 °F 61% 29.86 in - SSW 11.5 mph - -  
8:00 PM 77.7 °F - 67.1 °F 70% 29.86 in - SSW 11.5 mph 18.4 mph N/A   Unknown
10:00 PM 76.3 °F - 68.4 °F 76% 29.90 in - SW 9.2 mph 17.3 mph N/A   Unknown
11:00 PM 74.3 °F - 67.8 °F 80% 29.89 in - SW 10.4 mph 20.7 mph N/A   Unknown